Flag for Mexico Weather past 2 weeks in Ojinaga, Chihuahua, Mexico

Now
79 °F

Passing clouds.


Feels Like: 81 °F
Forecast: 68 / 98 °F
Wind: No wind

Location: Marfa Municipal Airport

Current Time: Aug 4, 2015 at 5:08:52 PM

Latest Report: Aug 4, 2015 at 4:35 PM


Visibility: 10 mi

Pressure: 30.13 "Hg (27.54 "Hg at 788m altitude)

Humidity: 61%

Dew point: 64 °F

Location of OjinagaLocation

Historic Weather in Ojinaga — Graph

°F

Ojinaga temperature yesterday

Maximum temperature yesterday: 90 °F (at 12:55 PM)
Minimum temperature yesterday: 61 °F (at 5:55 AM)
Average temperature yesterday: 75 °F

Past Weeks' High & Low Weather Summary

 TemperatureHumidityPressure
High93 °F (Jul 27, 2:15 PM)100% (Jul 23, 2:35 AM)30.33 "Hg (Jul 23, 2:35 AM)
Low57 °F (Jul 31, 3:15 AM)21% (Jul 26, 6:15 PM)30.04 "Hg (Jul 21, 5:35 PM)
Average75 °F62%30.16 "Hg
* Reported Jul 20 4:35 PM — Aug 4 4:15 PM, Ojinaga, Weather by CustomWeather, © 2015

Note: Actual official high and low records may vary slightly from our data, if they occured in-between our weather recording intervals... More about our weather records

Advertising

Ojinaga weather history for previous 24 hours

 ConditionsComfort  
Time TempWeatherWind HumidityBarometerVisibility
4:15 PM
Tue, Aug 4
77 °FPartly sunny.5 mph65%30.13 "Hg10 mi
3:55 PM75 °FPartly sunny.No wind69%30.13 "Hg10 mi
3:35 PM75 °FMore clouds than sun.5 mph65%30.13 "Hg10 mi
3:15 PM73 °FMostly cloudy.8 mph69%30.14 "Hg10 mi
2:55 PM73 °FThundershowers. Mostly cloudy.13 mph69%30.15 "Hg10 mi
2:35 PM75 °FThundershowers. Overcast.10 mph65%30.16 "Hg10 mi
2:15 PM75 °FThunderstorms. Cloudy.7 mph65%30.15 "Hg9 mi
1:55 PM82 °FThunderstorms. Broken clouds.22 mph42%30.16 "Hg10 mi
1:35 PM90 °FThundershowers. Sunny.7 mph33%30.14 "Hg10 mi
1:15 PM88 °FSunny.9 mph35%30.15 "Hg10 mi
12:55 PM88 °FSunny.7 mph35%30.16 "Hg10 mi
12:35 PM86 °FSunny.6 mph38%30.17 "Hg10 mi
12:15 PM86 °FSunny.7 mph40%30.17 "Hg10 mi
11:55 AM84 °FSunny.7 mph40%30.17 "Hg10 mi
11:35 AM84 °FPassing clouds.7 mph40%30.18 "Hg10 mi
11:15 AM82 °FPartly sunny.7 mph42%30.18 "Hg10 mi
10:55 AM81 °FPassing clouds.6 mph45%30.19 "Hg10 mi
10:35 AM81 °FSunny.6 mph45%30.19 "Hg10 mi
10:15 AM81 °FSunny.5 mph42%30.19 "Hg10 mi
9:55 AM81 °FSunny.7 mph42%30.19 "Hg10 mi
9:35 AM79 °FSunny.6 mph48%30.19 "Hg10 mi
9:15 AM77 °FSunny.No wind51%30.19 "Hg10 mi
8:55 AM75 °FPassing clouds.No wind57%30.19 "Hg10 mi
8:35 AM75 °FScattered clouds.No wind57%30.19 "Hg10 mi
8:15 AM75 °FPassing clouds.No wind54%30.18 "Hg10 mi
7:55 AM75 °FScattered clouds.No wind57%30.18 "Hg10 mi
7:35 AM72 °FPartly sunny.3 mph69%30.17 "Hg10 mi
7:15 AM66 °FClear.No wind83%30.17 "Hg10 mi
6:55 AM63 °FClear.6 mph88%30.16 "Hg10 mi
6:35 AM63 °FClear.7 mph88%30.16 "Hg10 mi
6:15 AM63 °FClear.7 mph88%30.15 "Hg10 mi
5:55 AM61 °FClear.7 mph88%30.14 "Hg10 mi
5:35 AM61 °FClear.6 mph94%30.14 "Hg10 mi
5:15 AMN/APassing clouds.N/AN/AN/A10 mi
4:55 AM63 °FPassing clouds.5 mph94%30.14 "Hg10 mi
4:35 AM63 °FClear.6 mph94%30.14 "Hg10 mi
4:15 AM64 °FClear.7 mph88%30.14 "Hg10 mi
3:55 AM66 °FClear.3 mph83%30.14 "Hg10 mi
3:35 AM66 °FClear.3 mph83%30.14 "Hg10 mi
3:15 AM66 °FPassing clouds.5 mph83%30.14 "Hg10 mi
2:55 AM66 °FPassing clouds.6 mph83%30.14 "Hg10 mi
2:35 AM66 °FClear.6 mph83%30.14 "Hg10 mi
2:15 AM66 °FClear.5 mph83%30.15 "Hg10 mi
1:55 AM64 °FClear.3 mph88%30.16 "Hg10 mi
1:35 AM68 °FClear.3 mph69%30.16 "Hg10 mi
1:15 AM66 °FClear.8 mph78%30.15 "Hg10 mi
12:55 AM68 °FPassing clouds.7 mph73%30.15 "Hg10 mi
12:35 AM70 °FPassing clouds.7 mph69%30.15 "Hg10 mi
12:15 AM70 °FMostly cloudy.10 mph73%30.16 "Hg10 mi
11:55 PM
Mon, Aug 3
70 °FThundershowers. Passing clouds.12 mph73%30.17 "Hg10 mi
11:35 PM70 °FThundershowers. Partly cloudy.15 mph73%30.18 "Hg10 mi
11:15 PM70 °FPassing clouds.7 mph73%30.16 "Hg10 mi
10:55 PM72 °FClear.12 mph65%30.16 "Hg10 mi
10:35 PM72 °FClear.13 mph65%30.15 "Hg10 mi
10:15 PM73 °FPassing clouds.14 mph61%30.14 "Hg10 mi
9:55 PM75 °FPassing clouds.17 mph54%30.14 "Hg10 mi
9:15 PM75 °FPassing clouds.14 mph54%30.11 "Hg10 mi
8:55 PM73 °FPassing clouds.8 mph57%30.10 "Hg10 mi
8:35 PM73 °FSunny.8 mph57%30.10 "Hg10 mi
8:15 PM73 °FSunny.8 mph65%30.09 "Hg10 mi
7:55 PM75 °FSunny.8 mph61%30.09 "Hg10 mi
7:35 PM79 °FSunny.6 mph54%30.09 "Hg10 mi
7:15 PM79 °FSunny.3 mph54%30.08 "Hg10 mi
6:55 PM81 °FPassing clouds.7 mph51%30.07 "Hg10 mi
6:35 PM82 °FPartly sunny.10 mph42%30.07 "Hg10 mi
6:15 PM84 °FPartly sunny.6 mph40%30.07 "Hg10 mi
5:55 PM84 °FPassing clouds.5 mph40%30.07 "Hg10 mi
5:35 PM84 °FSunny.5 mph40%30.07 "Hg10 mi
5:15 PM84 °FSunny.6 mph40%30.07 "Hg10 mi
Weather by CustomWeather, © 2015

See weather overviewHow to use our weather pages